Date,TemperatureHighF,TemperatureAvgF,TemperatureLowF,DewpointHighF,DewpointAvgF,DewpointLowF,HumidityHigh,HumidityAvg,HumidityLow,PressureMaxIn,PressureMinIn,WindSpeedMaxMPH,WindSpeedAvgMPH,GustSpeedMaxMPH,PrecipitationSumIn
2013-2-1,31.5,28.5,24.1,13.8,11.1,6.8,58,48,37,30.16,29.71,21,6,21,0.33
2013-2-2,31.2,25.6,0.0,21.6,10.2,6.1,82,52,36,30.24,29.99,18,3,18,0.33
2013-2-3,32.7,28.0,24.7,23.7,20.6,16.3,85,74,61,29.99,29.71,10,1,10,0.05
2013-2-4,33.1,27.4,0.0,21.3,11.9,8.6,74,52,39,29.91,29.72,18,5,18,0.01
2013-2-5,31.7,30.4,28.8,28.5,25.5,17.1,88,82,61,29.91,29.82,8,0,10,0.01
2013-2-6,40.1,33.5,29.4,28.7,22.4,8.1,92,66,40,30.29,29.84,17,3,17,0.01
2013-2-7,34.2,30.0,26.2,22.7,12.8,6.9,70,49,38,30.45,30.26,10,0,10,0.01
2013-2-8,34.9,32.4,0.0,33.2,29.1,22.8,94,87,70,30.27,29.52,26,3,26,0.25
2013-2-9,35.4,28.5,25.4,25.5,22.7,17.7,93,80,50,29.97,29.64,28,8,28,0.43
2013-2-10,42.5,33.8,0.0,26.9,20.8,13.7,82,60,37,30.36,30.26,6,0,6,0.43
2013-2-11,44.2,39.2,0.0,44.2,38.0,26.9,100,95,82,30.27,29.58,16,1,16,0.03
2013-2-12,46.1,41.2,40.7,40.7,38.1,27.7,100,91,51,29.81,29.64,18,1,18,0.00
2013-2-13,48.6,39.7,35.7,31.7,29.3,26.4,85,66,48,29.79,29.61,10,1,10,0.00
2013-2-14,50.3,39.4,32.0,35.9,31.6,26.7,91,75,45,29.94,29.61,14,2,14,0.02
2013-2-15,55.3,42.6,33.6,41.4,36.0,30.2,89,78,55,29.95,29.85,15,2,15,0.00
2013-2-16,43.2,36.6,30.7,34.3,27.6,16.4,87,70,54,29.89,29.63,21,4,21,0.00
2013-2-17,34.1,27.1,17.4,17.1,6.2,-1.3,56,41,29,29.92,29.56,30,9,30,0.01
2013-2-18,37.4,25.4,17.0,16.0,6.1,-0.0,51,44,32,30.17,29.91,26,5,26,1.65
2013-2-19,45.4,39.2,30.9,43.1,31.9,15.6,96,76,48,30.15,29.59,24,4,24,0.17
2013-2-20,38.3,30.9,0.0,27.2,14.6,8.8,66,50,41,29.91,29.63,25,7,30,0.01
2013-2-21,37.2,28.5,23.8,16.5,12.9,9.8,63,52,41,30.21,29.89,25,7,25,0.01
2013-2-22,40.1,32.8,26.2,31.8,23.3,15.9,81,68,55,30.34,30.18,16,2,16,0.01
2013-2-23,43.7,39.0,36.3,42.7,36.7,31.6,97,92,81,30.22,29.71,17,2,17,0.33
2013-2-24,46.9,39.1,33.6,39.5,33.3,23.7,95,80,61,29.89,29.66,27,5,27,0.02
2013-2-25,49.4,38.8,31.2,30.6,27.3,23.2,76,64,45,30.17,29.88,13,2,15,0.00
2013-2-26,45.4,38.6,31.7,35.2,31.8,27.4,93,77,62,30.24,29.82,20,2,20,0.12
2013-2-27,49.4,44.0,36.8,48.6,41.5,34.2,100,91,77,29.84,29.40,33,4,33,0.90
2013-2-28,50.4,44.2,0.0,40.6,36.7,31.3,89,75,60,29.56,29.46,12,1,12,0.01